Fairbanks, AK

7:55 PM AKDT on September 19, 2019 (GMT -0800)
Fairbanks International

Weather History for PAFA - December, 1974

Change the Weather History Date:

Sunday, December 29, 1974

  Actual Average Record
Temperature  
Mean Temperature -45 °F -6 °F  
Max Temperature -43 °F 3 °F 43 °F (1982)
Min Temperature -47 °F -15 °F -62 °F (1961)
Degree Days  
Heating Degree Days 110 71  
Month to date heating degree days 1998  
Since 1 July heating degree days 6129  
Cooling Degree Days 0 0  
Month to date cooling degree days 0  
Year to date cooling degree days 61  
Moisture  
Dew Point -53 °F    
Average Humidity 64    
Maximum Humidity 67    
Minimum Humidity 63    
Precipitation  
Precipitation 0.00 in 0.03 in 0.74 in (2016)
Month to date precipitation 0.60  
Year to date precipitation 10.77  
Snow  
Snow 0.00 in 0.40 in 10.40 in (2016)
Month to date snowfall 11.3  
Since 1 July snowfall 37.1  
Snow Depth -    
Sea Level Pressure  
Sea Level Pressure 29.59 in    
Wind  
Wind Speed 1 mph (NE)    
Max Wind Speed 5 mph    
Max Gust Speed -    
T = Trace of Precipitation, MM = Missing Value Source: NWS Daily Summary

Daily Weather History Graph

Daily Weather History Graph

Search for Another Location

Airport or City:

Astronomy

Dec. 29, 1974 Rise Set
Actual Time 9:57 AM AHST 1:49 PM AHST
Civil Twilight 8:34 AM AHST 3:13 PM AHST
Nautical Twilight 7:22 AM AHST 4:24 PM AHST
Astronomical Twilight 6:21 AM AHST 5:25 PM AHST
Moon 3:45 PM AHST (12/29) 9:41 AM AHST (12/29)
Length of Visible Light 6h 39m
Length of Day
3h 52m
Full, 99% of the Moon is Illuminated
Dec 29
Full
Jan 4
Last Quarter
Jan 12
New
Jan 20
First Quarter
Jan 27
Full

Hourly Weather History & Observations

Time (AHST) Temp. Windchill Dew Point Humidity Pressure Visibility Wind Dir Wind Speed Gust Speed Precip Events Conditions
12:00 AM -45.0 °F - -53.0 °F 64% 29.48 in 0.2 mi Calm Calm - N/A Fog Fog
1:00 AM -45.9 °F -60.3 °F -54.0 °F 63% 29.49 in 0.5 mi SW 3.5 mph - N/A Fog Fog
2:00 AM -45.9 °F - -54.0 °F 63% 29.49 in 0.5 mi Calm Calm - N/A Fog Fog
2:23 AM - - - N/A% 29.41 in 0.8 mi South 3.5 mph - N/A Fog Fog
3:00 AM -47.9 °F -65.8 °F -56.0 °F 63% 29.52 in 0.8 mi South 4.6 mph - N/A Fog Fog
4:00 AM -47.9 °F -62.6 °F -56.0 °F 63% 29.53 in 0.8 mi East 3.5 mph - N/A Fog Fog
5:00 AM -47.0 °F - -54.9 °F 63% 29.55 in 0.8 mi Calm Calm - N/A Fog Fog
5:45 AM - - - N/A% 29.47 in 0.5 mi Calm Calm - N/A Fog Fog
6:00 AM -47.0 °F - -54.9 °F 63% 29.56 in 0.2 mi Calm Calm - N/A Fog Fog
7:00 AM -45.9 °F - -54.0 °F 63% 29.57 in 0.2 mi Calm Calm - N/A Fog Fog
8:00 AM -45.0 °F - -53.0 °F 64% 29.58 in 0.2 mi Calm Calm - N/A Fog Fog
9:00 AM -45.9 °F -60.3 °F -54.0 °F 63% 29.59 in 0.2 mi ENE 3.5 mph - N/A Fog Fog
10:00 AM -45.0 °F -59.3 °F -53.0 °F 64% 29.60 in 0.2 mi NNE 3.5 mph - N/A Fog Fog
11:00 AM -45.0 °F - -53.0 °F 64% 29.61 in 0.2 mi Calm Calm - N/A Fog Fog
12:00 PM -44.0 °F - -51.0 °F 67% 29.63 in 0.2 mi Calm Calm - N/A Fog Fog
1:00 PM -43.1 °F - -50.1 °F 67% 29.64 in 0.2 mi Calm Calm - N/A Fog Fog
2:00 PM -43.1 °F -60.2 °F -50.1 °F 67% 29.64 in 0.2 mi NNE 4.6 mph - N/A Fog Fog
3:00 PM -43.1 °F -57.0 °F -50.1 °F 67% 29.65 in 0.2 mi North 3.5 mph - N/A Fog Fog
4:00 PM -43.1 °F - -50.1 °F 67% 29.66 in 0.2 mi Calm Calm - N/A Fog Fog
5:00 PM -44.0 °F -58.1 °F -51.0 °F 67% 29.66 in 0.2 mi NE 3.5 mph - N/A Fog Fog
6:00 PM -45.9 °F - -54.0 °F 63% 29.66 in 0.2 mi Calm Calm - N/A Fog Fog
7:00 PM -45.9 °F - -54.0 °F 63% 29.67 in 0.2 mi Calm Calm - N/A Fog Fog
8:00 PM -47.0 °F - -54.9 °F 63% 29.66 in 0.2 mi Calm Calm - N/A Fog Fog
9:00 PM -47.0 °F - -54.9 °F 63% 29.67 in 0.2 mi Calm Calm - N/A Fog Fog
10:00 PM -45.9 °F - -54.0 °F 63% 29.68 in 0.2 mi Calm Calm - N/A Fog Fog
11:00 PM -45.9 °F -60.3 °F -54.0 °F 63% 29.66 in 0.2 mi North 3.5 mph - N/A Fog Fog